Location: Braunsdorf
(50.7357°N, 11.9136°E)
Time: 07:36:58
(UTC+00:00)

H-2A R/B - Pass Details

Date: 17 February 2020
Orbit: 530 x 652 km, 98.3° (Epoch: 31 March)

Event Time Altitude Azimuth Distance (km) Brightness Sun altitude
Rises 03:39:08 0° 18° (NNE) 2,887 6.4 -26.3°
Reaches altitude 10° 03:41:21 10° 24° (NNE) 1,996 5.6 -25.9°
Maximum altitude 03:45:36 50° 100° (E) 807 3.4 -25.3°
Enters shadow 03:48:33 19° 170° (S) 1,515 4.5 -24.8°
